User: anonymous   Login
Location: Vancouver
(49.2500°N, 123.1330°W)
Time: 08:47:09
(UTC-07:00)
Language:

Oscar 11 - Orbit

View from above orbital plane
View from above orbital plane
View from above satellite
View from above satellite

Ground track
Ground track

The orbit data is extracted from the following two-line orbital elements,

1 14781U 84021B   14295.73378725  .00001545  00000-0  20200-3 0  6437
2 14781 097.8367 353.2811 0010022 123.2815 236.9359 14.81823027646855
Epoch (UTC): 22 October 2014 17:36:39
Eccentricity: 0.0010022
inclination: 97.8367°
perigee height: 616 km
apogee height: 630 km
right ascension of ascending node: 353.2811°
argument of perigee: 123.2815°
revolutions per day: 14.81823027
mean anomaly at epoch: 236.9359°
orbit number at epoch: 64685

The dashed part of the orbit path shows where the satellite is in the earth's shadow,  

DLR